Location: Bijele Vode
(45.2833°N, 16.2000°E)
Time: 03:22:42
(UTC+00:00)

Nauka - Pass Details

Date: 27 September 2021
Orbit: 417 x 423 km, 51.6° (Epoch: 24 October)

Event Time Altitude Azimuth Distance (km) Brightness Sun altitude
Rises 18:11:15 0° 295° (WNW) 2,366 ? -16.2°
Reaches altitude 10° 18:13:31 10° 306° (NW) 1,502 ? -16.6°
Maximum altitude 18:16:31 29° 9° (N) 797 ? -17.1°
Enters shadow 18:17:27 25° 40° (NE) 889 ? -17.3°
